Вернуться в каталог

COSMOS 1217

АктивенНавигацияHEO
NORAD 12032·PAYLOAD·🇷🇺 Russia

Запущен Oct 24, 1980 с Plesetsk Cosmodrome

Loading…

Ближайшие Пролёты (ближайшие 24 часа)

TLE

СвежийSource: Space-Track

Эпоха: Sep 10, 2026, 18:09 UTC

1 12032U 80085A   26253.75691224 -.00000700  00000-0  00000-0 0  9991
2 12032  70.1610 173.4846 5784669 236.3397  54.9235  2.00996154283935

Отслеживайте COSMOS 1217 в реальном времени с AllMySat

Download on the App Store